Weather History for Asheville, NC

Change the Weather History Date:

Saturday, July 6, 2013

  Actual Average Record
Temperature  
Mean Temperature 74 °F 74 °F  
Max Temperature 81 °F 84 °F 93 °F (1993)
Min Temperature 67 °F 63 °F 51 °F (1933)
Degree Days  
Heating Degree Days 0 0  
Month to date heating degree days 0 0  
Since 1 June heating degree days 0 14  
Since 1 July heating degree days 0 0  
Cooling Degree Days 9 9  
Month to date cooling degree days 42 50  
Year to date cooling degree days 295 285  
Since 1 June cooling degree days 244 227  
Growing Degree Days 24 (Base 50)    
Moisture  
Dew Point 67 °F    
Average Humidity 79    
Maximum Humidity 100    
Minimum Humidity 58    
Precipitation  
Precipitation 1.20 in 0.13 in 1.35 in (2008)
Month to date precipitation 8.32 0.85  
Year to date precipitation 46.41 23.75  
Snow  
Snow 0.00 in 0.00 in 0.00 in ()
Month to date snowfall 0.0 0.0  
Since 1 June snowfall 0.0 0.0  
Since 1 July snowfall 0.0 0.0  
Snow Depth 0.00 in    
Sea Level Pressure  
Sea Level Pressure 30.22 in    
Wind  
Wind Speed 5 mph (SSE)    
Max Wind Speed 21 mph    
Max Gust Speed 26 mph    
Visibility 8 miles    
Events Rain    
T = Trace of Precipitation, MM = Missing Value Source: NWS Daily Summary

Daily Weather History Graph

Daily Weather History Graph

Search for Another Location

Airport:

Trip Planner

Search our weather history database for the weather conditions in past years. The results will help you decide how hot, cold, wet, or windy it might be!

Date:

Astronomy

Jul. 06, 2013 Rise Set
Actual Time 6:21 AM EDT 8:48 PM EDT
Civil Twilight 5:51 AM EDT 9:18 PM EDT
Nautical Twilight 5:14 AM EDT 9:54 PM EDT
Astronomical Twilight 4:34 AM EDT 10:34 PM EDT
Moon 5:04 AM EDT (7/6) 7:31 PM EDT (7/6)
Length of Visible Light 15h 26m
Length of Day
14h 27m
Waning Crescent, 2% of the Moon is Illuminated
Jul 6
Waning Crescent
Jul 8
New
Jul 15
First Quarter
Jul 22
Full
Jul 29
Last Quarter

Hourly Weather History & Observations

Time (EDT) Temp. Heat Index Dew Point Humidity Pressure Visibility Wind Dir Wind Speed Gust Speed Precip Events Conditions
12:45 AM 69.8 °F - 68.0 °F 94% 30.27 in 6.0 mi South 4.6 mph - 0.02 in Rain Rain
12:54 AM 69.1 °F - 68.0 °F 96% 30.20 in 4.0 mi Calm Calm - 0.06 in Rain Rain
1:01 AM 69.8 °F - 68.0 °F 94% 30.27 in 1.8 mi South 3.5 mph - 0.10 in Rain Heavy Rain
1:09 AM 69.8 °F - 68.0 °F 94% 30.26 in 3.0 mi South 3.5 mph - 0.17 in Rain Rain
1:27 AM 69.8 °F - 68.0 °F 94% 30.25 in 2.0 mi Calm Calm - 0.28 in Rain Heavy Rain
1:30 AM 69.8 °F - 68.0 °F 94% 30.25 in 2.0 mi ESE 3.5 mph - 0.31 in Rain Heavy Rain
1:39 AM 69.8 °F - 68.0 °F 94% 30.25 in 7.0 mi ESE 3.5 mph - 0.33 in Rain Light Rain
1:54 AM 69.1 °F - 68.0 °F 96% 30.18 in 6.0 mi SSW 6.9 mph - 0.34 in Rain Rain
2:01 AM 69.8 °F - 68.0 °F 94% 30.25 in 3.0 mi Calm Calm - 0.04 in Rain Heavy Rain
2:09 AM 69.8 °F - 68.0 °F 94% 30.26 in 1.8 mi SSW 5.8 mph - 0.10 in Rain Heavy Rain
2:17 AM 69.8 °F - 68.0 °F 94% 30.25 in 3.0 mi Variable 3.5 mph - 0.18 in Rain Light Rain
2:27 AM 69.8 °F - 68.0 °F 94% 30.25 in 10.0 mi Calm Calm - 0.18 in   Mostly Cloudy
2:36 AM 68.0 °F - 68.0 °F 100% 30.26 in 2.0 mi SW 6.9 mph - 0.20 in Rain Heavy Rain
2:39 AM 68.0 °F - 68.0 °F 100% 30.26 in 1.2 mi SW 10.4 mph - 0.28 in Rain Heavy Rain
2:50 AM 68.0 °F - 66.2 °F 94% 30.26 in 1.5 mi SSW 10.4 mph - 0.62 in Rain Heavy Rain
2:54 AM 68.0 °F - 66.0 °F 93% 30.18 in 2.5 mi South 5.8 mph - 0.63 in Rain Heavy Rain
3:01 AM 68.0 °F - 66.2 °F 94% 30.25 in 4.0 mi SSE 6.9 mph - 0.02 in Rain Rain
3:16 AM 66.2 °F - 66.2 °F 100% 30.25 in 6.0 mi SE 4.6 mph - 0.08 in Rain Light Rain
3:42 AM 66.2 °F - 66.2 °F 100% 30.25 in 10.0 mi SE 3.5 mph - 0.08 in   Overcast
3:54 AM 66.9 °F - 66.0 °F 97% 30.18 in 10.0 mi SE 4.6 mph - 0.08 in Rain Light Rain
4:26 AM 66.2 °F - 64.4 °F 94% 30.25 in 10.0 mi ESE 3.5 mph - 0.00 in   Overcast
4:54 AM 66.9 °F - 66.0 °F 97% 30.17 in 10.0 mi Calm Calm - 0.00 in   Overcast
5:05 AM 66.2 °F - 66.2 °F 100% 30.25 in 10.0 mi Calm Calm - N/A   Overcast
5:54 AM 66.9 °F - 66.0 °F 97% 30.18 in 10.0 mi Calm Calm - N/A   Overcast
6:09 AM 66.2 °F - 66.2 °F 100% - 4.0 mi SSW 3.5 mph - 0.01 in Rain Rain
6:13 AM 66.2 °F - 66.2 °F 100% - 2.5 mi Calm Calm - 0.03 in Rain Heavy Rain
6:26 AM 66.2 °F - 66.2 °F 100% - 8.0 mi Calm Calm - 0.08 in Rain Light Rain
6:34 AM 66.2 °F - 66.2 °F 100% - 10.0 mi Calm Calm - 0.08 in   Overcast
6:46 AM 66.2 °F - 66.2 °F 100% - 10.0 mi Calm Calm - 0.08 in   Overcast
6:54 AM 66.9 °F - 66.0 °F 97% - 10.0 mi Calm Calm - 0.08 in   Overcast
7:10 AM 68.0 °F - 66.2 °F 94% - 10.0 mi South 3.5 mph - 0.00 in Rain Light Rain
7:41 AM 68.0 °F - 66.2 °F 94% - 10.0 mi SSE 4.6 mph - 0.00 in Rain Light Rain
7:50 AM 69.8 °F - 68.0 °F 94% - 10.0 mi SSE 5.8 mph - 0.00 in   Overcast
7:54 AM 69.1 °F - 66.9 °F 93% - 10.0 mi SSE 6.9 mph - 0.01 in   Overcast
8:18 AM 69.8 °F - 66.2 °F 88% - 6.0 mi SSE 6.9 mph - 0.00 in Rain Light Rain
8:27 AM 69.8 °F - 66.2 °F 88% 30.28 in 3.0 mi SSE 6.9 mph - 0.00 in Rain Rain
8:51 AM 69.8 °F - 68.0 °F 94% 30.29 in 10.0 mi SSE 6.9 mph - 0.02 in   Overcast
8:54 AM 70.0 °F - 68.0 °F 93% 30.22 in 10.0 mi SSE 4.6 mph - 0.02 in   Mostly Cloudy
9:43 AM 71.6 °F - 66.2 °F 83% 30.28 in 10.0 mi SE 5.8 mph - N/A   Overcast
9:54 AM 71.1 °F - 66.0 °F 84% 30.21 in 10.0 mi SSE 6.9 mph - N/A   Overcast
10:11 AM 71.6 °F - 66.2 °F 83% 30.28 in 10.0 mi SSE 10.4 mph - N/A   Overcast
10:23 AM 71.6 °F - 66.2 °F 83% 30.28 in 10.0 mi South 6.9 mph - N/A   Overcast
10:54 AM 73.9 °F - 66.9 °F 79% 30.21 in 10.0 mi South 10.4 mph - N/A   Overcast
11:54 AM 75.0 °F - 66.0 °F 73% 30.20 in 10.0 mi South 8.1 mph - N/A   Overcast
12:35 PM 75.2 °F - 66.2 °F 73% 30.27 in 10.0 mi SSE 11.5 mph - N/A   Overcast
12:54 PM 77.0 °F - 66.0 °F 69% 30.19 in 10.0 mi SSE 11.5 mph - N/A   Mostly Cloudy
1:01 PM 78.8 °F - 66.2 °F 65% 30.26 in 10.0 mi South 12.7 mph 18.4 mph N/A   Scattered Clouds
1:54 PM 79.0 °F - 66.9 °F 66% 30.17 in 10.0 mi South 11.5 mph - N/A   Scattered Clouds
2:54 PM 78.1 °F - 66.9 °F 68% 30.15 in 10.0 mi SSE 11.5 mph - 0.00 in   Mostly Cloudy
3:54 PM 80.1 °F 81.9 °F 64.9 °F 60% 30.13 in 10.0 mi SSE 11.5 mph 19.6 mph N/A   Clear
4:54 PM 72.0 °F - 69.1 °F 91% 30.14 in 10.0 mi SE 3.5 mph - 0.00 in Rain Light Rain
5:54 PM 75.0 °F - 69.1 °F 82% 30.13 in 10.0 mi SSE 5.8 mph - 0.00 in   Scattered Clouds
6:43 PM 75.2 °F - 66.2 °F 73% 30.20 in 10.0 mi South 8.1 mph - N/A   Mostly Cloudy
6:54 PM 75.0 °F - 66.9 °F 76% 30.13 in 10.0 mi South 5.8 mph - N/A   Overcast
7:54 PM 73.9 °F - 66.9 °F 79% 30.14 in 10.0 mi Calm Calm - N/A   Partly Cloudy
8:19 PM 73.4 °F - 69.8 °F 88% 30.22 in 10.0 mi Calm Calm - 0.00 in Rain Light Rain
8:33 PM 71.6 °F - 69.8 °F 94% 30.22 in 5.0 mi Variable 4.6 mph - 0.02 in Rain Light Rain
8:44 PM 71.6 °F - 69.8 °F 94% 30.22 in 10.0 mi Calm Calm - 0.02 in   Overcast
8:54 PM 71.1 °F - 69.1 °F 93% 30.15 in 10.0 mi SE 3.5 mph - 0.02 in   Overcast
9:22 PM 71.6 °F - 69.8 °F 94% 30.22 in 10.0 mi Calm Calm - 0.00 in Rain Light Rain
9:54 PM 71.1 °F - 69.1 °F 93% 30.16 in 10.0 mi Calm Calm - 0.00 in   Mostly Cloudy
10:11 PM 71.6 °F - 69.8 °F 94% 30.23 in 10.0 mi Calm Calm - N/A   Overcast
10:29 PM 71.6 °F - 69.8 °F 94% 30.24 in 3.0 mi SSE 4.6 mph - 0.05 in Rain Heavy Rain
10:54 PM 70.0 °F - 69.1 °F 97% 30.17 in 10.0 mi Variable 3.5 mph - 0.08 in   Overcast
11:54 PM 70.0 °F - 69.1 °F 97% 30.17 in 10.0 mi Calm Calm - 0.00 in Rain Light Rain